Regional Weather Roundup
Issued by NWS Jackson, KY

Home | Current Version | Previous Version | Text Only | Print | Product List | Glossary On
Versions: 1 2 3 4 5 6 7 8 9 10 11 12 13 14 15 16 17 18 19 20 21 22 23 24 25 26 27 28 29 30 31 32 33 34 35 36 37 38 39 40 41 42 43 44 45 46 47 48 49 50
000
ASUS43 KJKL 261210
RWRJKL

EAST KENTUCKY HOURLY WEATHER ROUNDUP
NATIONAL WEATHER SERVICE JACKSON KY
800 AM EDT TUE JUL 26 2016

NOTE: "FAIR" INDICATES FEW OR NO CLOUDS BELOW 12,000 FEET WITH
NO SIGNIFICANT WEATHER AND/OR OBSTRUCTIONS TO VISIBILITY.

* THESE REPORTS ARE NOT UNDER NWS QUALITY CONTROL AND MAY NOT
  REPORT WEATHER SUCH AS PRECIPITATION AND FOG.

KYZ079-080-083-085-087-088-110-112-115-119-120-261300
...EASTERN KENTUCKY...

CITY           SKY/WX    TMP DP  RH WIND       PRES   REMARKS
JACKSON        FOG       73  71  93 CALM      30.09S VSB 1/4
6HR MIN TEMP:  71; 6HR MAX TEMP:  73;

LONDON         SUNNY     72  68  87 CALM      30.08S
6HR MIN TEMP:  69; 6HR MAX TEMP:  72;

SOMERSET*      FOG       70  70 100 CALM      30.08S VSB<1/4
MONTICELLO*    SUNNY    N/A N/A N/A W8        30.09R
WILLIAMSBURG*  CLOUDY    70  70 100 S6        30.09S VSB<1/4
MIDDLESBORO*   CLOUDY    70  70 100 CALM      30.11S
6HR MIN TEMP:  68; 6HR MAX TEMP:  73;

HARLAN APT*    CLOUDY    70  68  94 CALM      30.12S
PIKE CO APT*   FOG       71  71 100 CALM      30.10S VSB<1/4
BIG SANDY APT* FOG       73  73 100 SW3       30.09R VSB<1/4
6HR MIN TEMP:  72; 6HR MAX TEMP:  74;

MOREHEAD APT*  FOG       73  72  94 CALM      30.09S VSB<1/4
ASHLAND*       CLOUDY    73  72  94 CALM      30.03S
$$

KYZ035-036-041-042-044-050-067-078-099-261300
...CENTRAL KENTUCKY...

CITY           SKY/WX    TMP DP  RH WIND       PRES   REMARKS
MT STERLING*   FOG       72  72 100 CALM      30.08F VSB 3/4
FLEMING/MASON* CLOUDY    74  73  97 CALM      30.07S FOG
DANVILLE*      MOSUNNY   70  70 100 CALM      30.08S
RICHMOND*      SUNNY     72  70  94 CALM      30.07S
LEXINGTON      SUNNY     73  72  96 CALM      30.06F FOG
6HR MIN TEMP:  72; 6HR MAX TEMP:  74;

FRANKFORT      CLOUDY    75  71  87 CALM      30.04F
6HR MIN TEMP:  73; 6HR MAX TEMP:  75;

LOUISVILLE     PTSUNNY   77  72  84 S3        30.03S
6HR MIN TEMP:  75; 6HR MAX TEMP:  77;

LEBANON*         N/A     73  73 100 CALM      30.07R FOG
GLASGOW*       SUNNY     74  74 100 CALM      30.04S
BOWLING GREEN  SUNNY     76  73  91 CALM      30.03S
6HR MIN TEMP:  73; 6HR MAX TEMP:  76;

$$

KYZ091>093-OHZ055-061-077-WVZ005-015-034-035-042-261300
...SOUTHERN OHIO/WEST VIRGINIA...

CITY           SKY/WX    TMP DP  RH WIND       PRES   REMARKS
COVINGTON      CLOUDY    79  70  74 NE6       30.05R
COLUMBUS       PTSUNNY   75  68  78 N6        30.04R
DAYTON         CLOUDY    73  66  78 N5        30.07R
WILMINGTON     MOSUNNY   75  69  81 N5        30.05S
HUNTINGTON     PTSUNNY   75  73  93 SW5       30.05R
CHARLESTON       N/A     76  71  85 SW5       30.06R
PINEVILLE*     FOG       70  67  90 MISG      30.16S VSB 1/2
BECKLEY          N/A     71  68  90 CALM      30.15R
BLUEFIELD        N/A     69  66  90 W7        30.17R
LOGAN CO APT*  FOG       72  72 100 CALM      30.09S VSB<1/4
$$

VAZ002-007-008-TNZ017-027-036-066-071-261300
...SOUTHWEST VIRGINIA/EAST TENNESSEE...

CITY           SKY/WX    TMP DP  RH WIND       PRES   REMARKS
WISE*            N/A     72  70  94 CALM      30.18R
JONESVILLE*      N/A     72  70  94 CALM      30.14R FOG
ABINGDON*        N/A     73  71  94 CALM      30.15R
BRISTOL        MOSUNNY   74  71  91 SE3       30.12R
MORRISTOWN*    SUNNY     77  73  88 SW5       30.10R
SEVIERVILLE*   SUNNY     73  70  88 CALM      30.09R
KNOXVILLE      CLOUDY    79  71  76 SW3       30.08R
OAK RIDGE      MOSUNNY   79  72  79 CALM      30.09R
CROSSVILLE     CLOUDY    73  70  90 CALM      30.13R
NASHVILLE      MOSUNNY   77  73  87 CALM      30.04S
$$

...KEY TO REMARKS...
VSB - VISIBILITY IN MILES
WCI - WIND CHILL INDEX
HX  - HEAT INDEX

$$



USA.gov is the U.S. government's official web portal to all federal, state and local government web resources and services.